Location: Unspecified
(43.8044°N, 11.0278°E)
Time: 14:32:55
(UTC+01:00)

Okean 3 - Visible Passes

Search period start: 06 February 2016 00:00
Search period end: 16 February 2016 00:00
Orbit: 578 x 605 km, 82.5° (Epoch: 05 February)

Date Brightness Start Highest point End Pass type
(mag) Time Alt. Az. Time Alt. Az. Time Alt. Az.
06 Feb 3.3 19:16:04 10° N 19:20:17 88° E 19:24:29 10° S visible
07 Feb 4.0 19:24:48 10° NNW 19:28:56 60° W 19:33:04 10° S visible
08 Feb 4.9 19:33:39 10° NNW 19:37:34 38° W 19:41:28 10° SSW visible
09 Feb 4.4 18:05:22 10° NNE 18:08:56 26° ENE 18:12:29 10° SE visible
09 Feb 5.7 19:42:39 10° NNW 19:46:08 26° W 19:49:37 10° SW visible
10 Feb 6.7 06:35:16 10° ESE 06:37:26 14° E 06:39:36 10° NE visible
10 Feb 3.9 18:13:45 10° N 18:17:42 38° ENE 18:21:39 10° SE visible
10 Feb 6.4 19:51:52 10° NW 19:54:41 18° W 19:57:29 10° SW visible
11 Feb 6.4 06:42:50 10° SE 06:45:57 21° E 06:49:04 10° NE visible
11 Feb 3.5 18:22:16 10° N 18:26:26 59° E 18:30:36 10° SSE visible
11 Feb 6.9 20:01:38 10° WNW 20:03:10 12° W 20:04:42 10° WSW visible
12 Feb 5.7 06:50:50 10° SSE 06:54:29 30° E 06:58:10 10° NNE visible
12 Feb 3.4 18:30:54 10° N 18:35:08 89° W 18:39:22 10° S visible
13 Feb 4.2 18:39:38 10° NNW 18:43:47 58° W 18:47:56 10° S visible
14 Feb 5.1 18:48:29 10° NNW 18:52:24 38° W 18:56:18 10° SSW visible
15 Feb 6.0 18:57:29 10° NNW 19:00:58 25° W 19:04:26 10° SW visible
